[[{"header":{"parameterUnit":"m.s-1","parameterCategory":1,"la1":30.2991,"la2":30.254,"lo1":-89.0895,"lo2":-89.0444,"dy":0.0017,"dx":0.0017,"nx":28,"ny":28,"refTime":"2024-06-18T09:00:00:Z","depth":0,"parameterNumber":2,"parameterNumberName":"U-component_of_WINDS"},"data":[0,0,0,0,0,0,0,0,0,0,0,0,0,0,0,0,0,0,0,0,0,0,0,0,0,0,0,0,0,0,0,0,0,0,0,0,0,0,0,0,0,0,0,0,0,0,0,0,0,0,0,0,0,0,0,0,0,0,-9.9104,-9.9105,0,-9.9122,-9.9123,-9.9123,-9.8858,-9.8851,-9.8844,-9.8837,-9.8855,-9.8862,-9.8869,0,0,0,0,0,0,0,0,0,0,0,0,0,-9.8842,-9.8848,-9.9104,-9.9105,-9.9105,-9.9122,-9.9123,-9.9123,-9.886,-9.8851,-9.8842,-9.8834,-9.8853,-9.8861,-9.887,0,0,0,0,0,0,0,0,0,0,0,0,0,-9.8918,-9.885,-9.9104,-9.8976,-9.8964,-9.9122,-9.9123,-9.9123,-9.8861,-9.8851,-9.884,-9.883,-9.885,-9.8861,-9.8871,-9.9153,0,0,-9.8904,-9.8909,0,0,0,0,0,0,0,0,-9.8914,-9.8927,-9.8994,-9.8985,-9.8972,-9.8977,-9.9036,-9.9133,-9.8864,-9.8901,-9.8837,-9.8825,-9.8905,-9.891,-9.8937,-9.9154,-9.9155,-9.8905,-9.8912,-9.8916,-9.8919,0,0,0,0,0,0,0,-9.8909,-9.8925,-9.9111,-9.8996,-9.8982,-9.8917,-9.8916,-9.9053,-9.8963,-9.8897,-9.8877,-9.8883,-9.8896,-9.8927,-9.8936,-9.9155,-9.8905,-9.8914,-9.8921,-9.8925,-9.9602,-9.9613,0,0,0,0,0,0,-9.8921,-9.8923,-9.9111,-9.9112,-9.8916,-9.893,-9.8929,-9.8986,-9.896,-9.8946,-9.8892,-9.8871,-9.8914,-9.8923,-9.8935,-9.926,-9.8916,-9.8926,-9.8932,-9.9591,-9.9604,-9.9617,0,0,0,0,0,0,-9.8916,-9.894,-9.911,-9.9012,-9.9029,-9.8946,-9.9013,-9.8993,-9.9023,-9.8957,-9.894,-9.8941,-9.8906,-9.892,-9.91,-9.9257,-9.8931,-9.8941,-9.9577,-9.9595,-9.9611,-9.9915,0,0,0,0,0,0,-9.891,-9.894,-9.9046,-9.9017,-9.9035,-9.9276,-9.9023,-9.9001,-9.9042,-9.9014,-9.8998,-9.8985,-9.8899,-9.9086,-9.9111,-9.9266,-9.8949,-9.9562,-9.9585,-9.9605,-9.9891,-9.9941,-9.9984,0,0,0,0,0,-9.8901,-9.9132,-9.9053,-9.9077,-9.9166,-9.9285,-9.9296,-9.9192,-9.9056,-9.9161,-9.912,-9.8985,-9.9238,-9.9107,-9.9133,-9.9294,-9.9552,-9.9578,-9.9604,-9.987,-9.9931,-9.9983,0,0,0,0,0,0,-9.9181,-9.9125,-9.9037,-9.9265,-9.9282,-9.924,-9.937,-9.9261,-9.9316,-9.9287,-9.9157,-9.9156,-9.9357,-9.9344,-9.9199,-9.9564,-9.9371,-9.9403,-9.9564,-9.9622,-9.9667,-9.9664,-9.8958,0,0,0,0,0,-9.927,-9.9372,-9.9317,-9.9523,-9.9536,-9.9454,-9.9501,-9.942,-9.9432,-9.9438,-9.9409,-9.9426,-9.9508,-9.9565,-9.9638,-9.989,-9.9881,-10.0014,-10.006,-10.0099,-10.0126,-10.0256,-10.0313,-9.9702,-9.9702,-9.9701,0,0,-9.9452,-9.9435,-9.9507,-9.9579,-9.9582,-9.969,-9.946,-9.9584,-9.9662,-9.9456,-9.9623,-9.9604,-9.9614,-9.9832,-9.9926,-9.9827,-10.0295,-10.0132,-10.0163,-10.0169,-10.0289,-10.0347,-10.0398,-9.972,-9.9717,-9.9714,0,0,-9.9839,-9.9838,-10.0007,-10.0017,-10.0025,-9.9969,-10.0011,-9.9986,-9.9965,-10.0132,-9.9979,-10.0071,-10.0217,-10.0229,-10.0255,-10.0651,-10.0528,-10.0679,-10.0919,-10.1048,-10.1096,-10.1138,-10.1275,-10.1326,-10.0708,-10.0709,-10.071,0,-10.0064,-10.022,-10.0109,-10.0242,-10.0278,-10.0099,-10.0269,-10.0283,-10.0316,-10.0345,-10.0235,-10.0413,-10.0408,-10.0624,-10.0721,-10.0749,-10.079,-10.0677,-10.1098,-10.1139,-10.1176,-10.1306,-10.1358,-10.0727,-10.0725,-10.0723,-10.0721,0,-10.0495,-10.0606,-10.0743,-10.0778,-10.083,-10.0982,-10.0893,-10.0959,-10.0876,-10.0831,-10.1003,-10.0991,-10.1057,-10.1103,-10.1023,-10.1309,-10.1247,-10.1121,-10.0922,-10.1254,-10.1373,-10.1422,-10.0752,-10.0746,-10.0741,-10.0736,0,0,-10.1052,-10.1027,-10.1078,-10.1092,-10.109,-10.1173,-10.1318,-10.1383,-10.144,-10.1471,-10.1586,-10.1716,-10.1599,-10.1628,-10.1549,-10.1662,-10.1972,-10.1521,-10.1519,-10.1601,-10.2282,-10.2374,-10.2433,-10.1894,-10.1903,-10.191,-10.228,0,-10.1425,-10.1668,-10.1573,-10.1824,-10.1923,-10.1757,-10.1882,-10.1895,-10.1859,-10.1938,-10.1898,-10.199,-10.183,-10.1847,-10.1952,-10.1912,-10.2106,-10.1885,-10.1997,-10.2003,-10.1994,-10.2495,-10.2592,-10.2941,-10.2326,-10.2334,-10.234,0,-10.1889,-10.1938,-10.2199,-10.2179,-10.2218,-10.2332,-10.2383,-10.2463,-10.2474,-10.244,-10.2475,-10.2371,-10.251,-10.2319,-10.2508,-10.236,-10.2401,-10.239,-10.24,-10.2402,-10.2187,-10.2506,-10.305,-10.3101,-10.2413,-10.2407,-10.2402,0,-10.2264,-10.2396,-10.2567,-10.2585,-10.2568,-10.2652,-10.2649,-10.265,-10.2695,-10.2742,-10.2769,-10.2833,-10.2866,-10.2917,-10.2832,-10.2701,-10.3034,-10.2835,-10.3006,-10.3009,-10.3078,-10.3074,-10.3632,-10.3116,-10.3115,-10.3114,-10.3113,0,-10.2685,-10.285,-10.2735,-10.2841,-10.3021,-10.2912,-10.3093,-10.3072,-10.3075,-10.3172,-10.3035,-10.313,-10.3015,-10.31,-10.3036,-10.32,-10.3218,-10.3193,-10.3172,-10.3201,-10.3204,-10.3222,-10.3193,-10.3128,-10.3125,-10.3122,-10.312,0,-10.3131,-10.3061,-10.3237,-10.3207,-10.3204,-10.3338,-10.3311,-10.3408,-10.3364,-10.3489,-10.3513,-10.3443,-10.3535,-10.3458,-10.3548,-10.3505,-10.3722,-10.3671,-10.3718,-10.3701,-10.3875,-10.3858,-10.4459,-10.4531,-10.3975,-10.3981,-10.3985,0,-10.3401,-10.3524,-10.3508,-10.3564,-10.3569,-10.3662,-10.3707,-10.3607,-10.366,-10.3683,-10.3777,-10.3858,-10.3915,-10.4071,-10.4028,-10.4096,-10.4041,-10.4248,-10.405,-10.4075,-10.4038,-10.403,-10.404,-10.4286,-10.4292,-10.4298,-10.4302,0,-10.3887,-10.3847,-10.3917,-10.3978,-10.4037,-10.4079,-10.4111,-10.4165,-10.4062,-10.4129,-10.4221,-10.4267,-10.4359,-10.444,-10.4495,-10.449,-10.438,-10.4366,-10.4408,-10.4436,-10.4456,-10.4443,-10.3821,-10.4351,-10.4346,-10.4342,-10.434,-10.4338,-10.4248,-10.4349,-10.4354,-10.4438,-10.4452,-10.4485,-10.4573,-10.4541,-10.4616,-10.4682,-10.462,-10.4732,-10.4741,-10.4802,-10.4812,-10.4898,-10.4811,-10.4874,-10.4889,-10.4904,-10.4927,-10.4449,-10.4908,-10.4907,-10.4905,-10.4904,-10.4903,0,-10.4722,-10.4718,-10.4797,-10.4845,-10.4912,-10.4805,-10.4835,-10.4897,-10.4996,-10.5015,-10.5076,-10.5183,-10.5261,-10.5227,-10.5295,-10.5371,-10.5321,-10.5392,-10.5382,-10.5382,-10.5003,-10.4956,-10.543,-10.543,-10.543,-10.543,-10.543,-10.543,-10.4976,-10.514,-10.5101,-10.5271,-10.5265,-10.5373,-10.5399,-10.5429,-10.5442,-10.5568,-10.5632,-10.561,-10.5607,-10.5675,-10.5742,-10.573,-10.5759,-10.5848,-10.5817,-10.5461,-10.5409,-10.5359,-10.5315,-10.5856,-10.5857,-10.6188,-10.6191,-10.6194]},{"header":{"parameterUnit":"m.s-1","parameterCategory":1,"la1":30.2991,"la2":30.254,"lo1":-89.0895,"lo2":-89.0444,"dy":0.0017,"dx":0.0017,"nx":28,"ny":28,"refTime":"2024-06-18T09:00:00:Z","depth":0,"parameterNumber":3,"parameterNumberName":"V-component_of_WINDS"},"data":[0,0,0,0,0,0,0,0,0,0,0,0,0,0,0,0,0,0,0,0,0,0,0,0,0,0,0,0,0,0,0,0,0,0,0,0,0,0,0,0,0,0,0,0,0,0,0,0,0,0,0,0,0,0,0,0,0,0,2.4974,2.4975,0,2.5008,2.5008,2.5009,2.4957,2.4956,2.4954,2.4952,2.4985,2.4987,2.499,0,0,0,0,0,0,0,0,0,0,0,0,0,2.4866,2.4869,2.4974,2.4975,2.4975,2.5008,2.5008,2.5009,2.4958,2.4956,2.4953,2.4951,2.4984,2.4987,2.499,0,0,0,0,0,0,0,0,0,0,0,0,0,2.4908,2.4869,2.4974,2.4954,2.4952,2.5008,2.5008,2.5009,2.4958,2.4955,2.4953,2.495,2.4983,2.4987,2.499,2.5067,0,0,2.5002,2.5004,0,0,0,0,0,0,0,0,2.4906,2.4912,2.4956,2.4955,2.4954,2.4976,2.4982,2.5028,2.4959,2.4956,2.4952,2.4949,2.4984,2.4987,2.4999,2.5069,2.507,2.5002,2.5005,2.5006,2.5007,0,0,0,0,0,0,0,2.4903,2.491,2.4987,2.4957,2.4955,2.4943,2.4946,2.4991,2.4984,2.4956,2.4952,2.4957,2.4983,2.4996,2.5,2.507,2.5002,2.5006,2.5008,2.5009,2.5205,2.5208,0,0,0,0,0,0,2.4903,2.4908,2.4986,2.4988,2.4923,2.4947,2.495,2.4971,2.4984,2.4983,2.4959,2.4955,2.4991,2.4995,2.5001,2.5091,2.5006,2.501,2.5012,2.5202,2.5206,2.5209,0,0,0,0,0,0,2.49,2.491,2.4985,2.4947,2.4956,2.4952,2.4976,2.4973,2.4987,2.4986,2.4985,2.4974,2.4989,2.4995,2.5051,2.5092,2.5011,2.5015,2.5199,2.5204,2.5208,2.5273,0,0,0,0,0,0,2.4898,2.491,2.4938,2.4948,2.4958,2.5035,2.4978,2.4976,2.4993,2.4988,2.5,2.4999,2.4987,2.5046,2.5055,2.5096,2.5018,2.5195,2.5201,2.5206,2.5268,2.528,2.529,0,0,0,0,0,2.4894,2.4955,2.494,2.495,2.4994,2.5038,2.5043,2.5029,2.4997,2.5026,2.5026,2.4999,2.5087,2.5052,2.5062,2.5104,2.5193,2.5199,2.5206,2.5263,2.5277,2.529,0,0,0,0,0,0,2.4948,2.4956,2.4939,2.5005,2.5022,2.5029,2.5065,2.5044,2.5069,2.5062,2.5043,2.5046,2.5106,2.5111,2.5073,2.518,2.5134,2.5143,2.5174,2.5188,2.5199,2.5196,2.5021,0,0,0,0,0,2.4968,2.5003,2.5008,2.5066,2.5075,2.5069,2.5087,2.5075,2.509,2.5096,2.5101,2.5116,2.5148,2.5168,2.5197,2.5269,2.5271,2.5303,2.5314,2.5323,2.5331,2.537,2.5384,2.5231,2.5231,2.5231,0,0,2.5009,2.5018,2.5041,2.5077,2.5088,2.5124,2.5074,2.5115,2.5142,2.5102,2.5155,2.516,2.5176,2.524,2.5269,2.5246,2.5374,2.5332,2.5339,2.5341,2.5378,2.5392,2.5405,2.5235,2.5235,2.5234,0,0,2.5102,2.5113,2.5162,2.5175,2.5193,2.5189,2.5201,2.5212,2.5214,2.5267,2.5239,2.5271,2.5325,2.5338,2.5351,2.5453,2.5429,2.5463,2.552,2.5559,2.5571,2.5581,2.5617,2.563,2.5471,2.5471,2.5471,0,2.515,2.5204,2.519,2.5233,2.525,2.5218,2.5268,2.5281,2.5307,2.532,2.5294,2.5363,2.5372,2.5439,2.5464,2.5477,2.549,2.546,2.557,2.5581,2.559,2.5624,2.5638,2.5475,2.5475,2.5474,2.5474,0,2.5263,2.5301,2.5339,2.5367,2.5388,2.5435,2.5428,2.5451,2.5438,2.5437,2.5493,2.5503,2.5533,2.5549,2.5536,2.5615,2.5601,2.5573,2.5527,2.5609,2.5641,2.5654,2.5481,2.5479,2.5478,2.5477,0,0,2.5388,2.5409,2.5423,2.5436,2.5454,2.5483,2.553,2.556,2.5581,2.5601,2.5639,2.5687,2.5662,2.5678,2.5667,2.5701,2.5781,2.5669,2.5669,2.5689,2.5869,2.5888,2.5903,2.5766,2.5768,2.577,2.5867,0,2.548,2.556,2.5549,2.5625,2.5661,2.5632,2.5672,2.5688,2.569,2.572,2.5721,2.5755,2.572,2.573,2.5762,2.5764,2.5816,2.5757,2.58,2.5802,2.5795,2.592,2.594,2.603,2.5879,2.5881,2.5883,0,2.5598,2.5623,2.5703,2.5718,2.5732,2.5769,2.5797,2.5826,2.5845,2.5843,2.5863,2.5846,2.5892,2.5847,2.591,2.5871,2.5888,2.5892,2.5895,2.5897,2.5846,2.5924,2.6059,2.6072,2.5902,2.5901,2.5899,0,2.568,2.5735,2.579,2.5802,2.582,2.5847,2.5856,2.5871,2.5891,2.5916,2.5929,2.5959,2.5975,2.5999,2.5991,2.5959,2.6057,2.6011,2.6056,2.6057,2.6076,2.6075,2.6215,2.609,2.609,2.609,2.609,0,2.5783,2.5833,2.5827,2.5861,2.5916,2.5905,2.596,2.5965,2.598,2.6015,2.5993,2.6025,2.6014,2.6046,2.6041,2.6094,2.6102,2.6102,2.6099,2.6103,2.6103,2.6112,2.6105,2.6093,2.6093,2.6092,2.6091,0,2.5883,2.5882,2.594,2.5954,2.5959,2.5999,2.6011,2.6043,2.6044,2.6088,2.6097,2.6098,2.6135,2.6131,2.6172,2.6168,2.6234,2.6225,2.6228,2.6226,2.6271,2.6267,2.6421,2.6441,2.6305,2.6306,2.6307,0,2.5948,2.5986,2.6005,2.6027,2.6038,2.6074,2.6095,2.6086,2.6108,2.6134,2.6163,2.6198,2.6225,2.6286,2.629,2.6322,2.6313,2.6365,2.6317,2.632,2.6312,2.631,2.6313,2.6373,2.6375,2.6376,2.6377,0,2.6064,2.6062,2.6093,2.6124,2.615,2.6174,2.6196,2.6215,2.6209,2.6235,2.6274,2.6295,2.6339,2.6374,2.6405,2.6414,2.6395,2.6393,2.6405,2.6408,2.6408,2.6408,2.6253,2.6389,2.6387,2.6387,2.6386,2.6386,2.6147,2.618,2.6199,2.6235,2.6251,2.6273,2.6304,2.6309,2.6341,2.6376,2.6369,2.6413,2.6432,2.6471,2.6484,2.6517,2.6498,2.6516,2.652,2.6524,2.6529,2.6404,2.6523,2.6523,2.6522,2.6522,2.6522,0,2.6261,2.6272,2.6306,2.6338,2.6366,2.6348,2.6372,2.6397,2.6435,2.6455,2.6484,2.6528,2.6563,2.6572,2.6605,2.6631,2.6623,2.664,2.6637,2.6639,2.6544,2.653,2.6645,2.6645,2.6645,2.6645,2.6645,2.6645,2.6323,2.6378,2.6378,2.6441,2.6452,2.6495,2.6511,2.6531,2.6546,2.6598,2.6627,2.6633,2.6648,2.6683,2.6715,2.6716,2.6729,2.6749,2.6747,2.6658,2.6646,2.6634,2.662,2.6752,2.6753,2.6839,2.684,2.684]}]]